Location: *
(32.8667°N, 13.1833°E)
Time: 00:25:50
(UTC+00:00)

Delta 7925 Rocket - Pass Details

Date: 18 July 2019
Orbit: 645 x 1648 km, 26.3° (Epoch: 22 August)

Event Time Altitude Azimuth Distance (km) Brightness Sun altitude
Rises 18:55:16 0° 261° (W) 2,950 7.4 -8.2°
Reaches altitude 10° 18:57:38 10° 252° (WSW) 2,076 6.4 -8.6°
Maximum altitude 19:02:02 37° 185° (S) 1,108 4.1 -9.4°
Enters shadow 19:06:26 13° 122° (ESE) 2,173 5.2 -10.2°
